<?xml version="1.0" encoding="UTF-8" standalone="no" ?>
<gpx xmlns="http://www.topografix.com/GPX/1/1" xmlns:xsi="http://www.w3.org/2001/XMLSchema-instance" xsi:schemaLocation="http://www.topografix.com/GPX/1/1 http://www.topografix.com/GPX/1/1/gpx.xsd" version="1.1" creator="VisuGPX - https://www.visugpx.com">
  <metadata>
    <name>Noel 2020</name>
  </metadata>
  <trk>
    <name><![CDATA[Noel 2020_1]]></name>
    <trkseg>
      <trkpt lat="49.02193" lon="1.14096">
        <ele>66.150879</ele>
        <time>2019-12-17T21:15:57Z</time>
      </trkpt>
      <trkpt lat="49.02193" lon="1.14096">
        <ele>66.150879</ele>
        <time>2019-12-17T21:15:57Z</time>
      </trkpt>
      <trkpt lat="49.02196" lon="1.14268">
        <ele>68.1549</ele>
        <time>2019-12-17T21:15:57Z</time>
      </trkpt>
      <trkpt lat="49.02206" lon="1.14442">
        <ele>67.330963</ele>
        <time>2019-12-17T21:15:57Z</time>
      </trkpt>
      <trkpt lat="49.02213" lon="1.14646">
        <ele>68</ele>
        <time>2019-12-17T21:15:57Z</time>
      </trkpt>
      <trkpt lat="49.02225" lon="1.14879">
        <ele>67.865456</ele>
        <time>2019-12-17T21:15:57Z</time>
      </trkpt>
      <trkpt lat="49.02292" lon="1.14855">
        <ele>67.000496</ele>
        <time>2019-12-17T21:15:57Z</time>
      </trkpt>
      <trkpt lat="49.02334" lon="1.14936">
        <ele>66.457672</ele>
        <time>2019-12-17T21:15:57Z</time>
      </trkpt>
      <trkpt lat="49.0236" lon="1.14974">
        <ele>67.792809</ele>
        <time>2019-12-17T21:15:57Z</time>
      </trkpt>
      <trkpt lat="49.02412" lon="1.14951">
        <ele>68.323883</ele>
        <time>2019-12-17T21:15:57Z</time>
      </trkpt>
      <trkpt lat="49.02468" lon="1.14917">
        <ele>67.387695</ele>
        <time>2019-12-17T21:15:57Z</time>
      </trkpt>
      <trkpt lat="49.02524" lon="1.14882">
        <ele>67.119064</ele>
        <time>2019-12-17T21:15:57Z</time>
      </trkpt>
      <trkpt lat="49.02574" lon="1.14855">
        <ele>67.654755</ele>
        <time>2019-12-17T21:15:57Z</time>
      </trkpt>
      <trkpt lat="49.02609" lon="1.14853">
        <ele>67.286308</ele>
        <time>2019-12-17T21:15:57Z</time>
      </trkpt>
      <trkpt lat="49.0265" lon="1.14888">
        <ele>66.787064</ele>
        <time>2019-12-17T21:15:57Z</time>
      </trkpt>
      <trkpt lat="49.02681" lon="1.14967">
        <ele>65.906197</ele>
        <time>2019-12-17T21:15:57Z</time>
      </trkpt>
      <trkpt lat="49.02719" lon="1.1509">
        <ele>65.581688</ele>
        <time>2019-12-17T21:15:57Z</time>
      </trkpt>
      <trkpt lat="49.02755" lon="1.15192">
        <ele>64.933838</ele>
        <time>2019-12-17T21:15:57Z</time>
      </trkpt>
      <trkpt lat="49.02776" lon="1.15181">
        <ele>64.683594</ele>
        <time>2019-12-17T21:15:57Z</time>
      </trkpt>
      <trkpt lat="49.02742" lon="1.15154">
        <ele>65.142525</ele>
        <time>2019-12-17T21:15:57Z</time>
      </trkpt>
      <trkpt lat="49.02663" lon="1.15194">
        <ele>65.416451</ele>
        <time>2019-12-17T21:15:57Z</time>
      </trkpt>
      <trkpt lat="49.025" lon="1.15279">
        <ele>67.654846</ele>
        <time>2019-12-17T21:15:57Z</time>
      </trkpt>
      <trkpt lat="49.02375" lon="1.15343">
        <ele>69.681358</ele>
        <time>2019-12-17T21:15:57Z</time>
      </trkpt>
      <trkpt lat="49.02342" lon="1.15213">
        <ele>71.800293</ele>
        <time>2019-12-17T21:15:57Z</time>
      </trkpt>
      <trkpt lat="49.02241" lon="1.15261">
        <ele>72.368408</ele>
        <time>2019-12-17T21:15:57Z</time>
      </trkpt>
      <trkpt lat="49.02201" lon="1.15207">
        <ele>71.248604</ele>
        <time>2019-12-17T21:15:57Z</time>
      </trkpt>
      <trkpt lat="49.02213" lon="1.15124">
        <ele>69.71109</ele>
        <time>2019-12-17T21:15:57Z</time>
      </trkpt>
      <trkpt lat="49.02055" lon="1.15183">
        <ele>76.879974</ele>
        <time>2019-12-17T21:15:57Z</time>
      </trkpt>
      <trkpt lat="49.01914" lon="1.15181">
        <ele>88.932869</ele>
        <time>2019-12-17T21:15:57Z</time>
      </trkpt>
      <trkpt lat="49.0188" lon="1.15217">
        <ele>89.458176</ele>
        <time>2019-12-17T21:15:57Z</time>
      </trkpt>
      <trkpt lat="49.0158" lon="1.1529">
        <ele>108.922119</ele>
        <time>2019-12-17T21:15:57Z</time>
      </trkpt>
      <trkpt lat="49.01873" lon="1.15477">
        <ele>91.161842</ele>
        <time>2019-12-17T21:15:57Z</time>
      </trkpt>
      <trkpt lat="49.01933" lon="1.15637">
        <ele>89.463867</ele>
        <time>2019-12-17T21:15:57Z</time>
      </trkpt>
      <trkpt lat="49.01979" lon="1.15795">
        <ele>91.514664</ele>
        <time>2019-12-17T21:15:57Z</time>
      </trkpt>
      <trkpt lat="49.02028" lon="1.15842">
        <ele>92.657684</ele>
        <time>2019-12-17T21:15:57Z</time>
      </trkpt>
      <trkpt lat="49.02057" lon="1.15718">
        <ele>85.50293</ele>
        <time>2019-12-17T21:15:57Z</time>
      </trkpt>
      <trkpt lat="49.0218" lon="1.1594">
        <ele>87.599709</ele>
        <time>2019-12-17T21:15:57Z</time>
      </trkpt>
      <trkpt lat="49.02306" lon="1.16054">
        <ele>88.568184</ele>
        <time>2019-12-17T21:15:57Z</time>
      </trkpt>
      <trkpt lat="49.02387" lon="1.16099">
        <ele>88.076889</ele>
        <time>2019-12-17T21:15:57Z</time>
      </trkpt>
      <trkpt lat="49.02367" lon="1.16255">
        <ele>105.955322</ele>
        <time>2019-12-17T21:15:57Z</time>
      </trkpt>
      <trkpt lat="49.02361" lon="1.16391">
        <ele>115.291588</ele>
        <time>2019-12-17T21:15:57Z</time>
      </trkpt>
      <trkpt lat="49.02261" lon="1.16445">
        <ele>119.403069</ele>
        <time>2019-12-17T21:15:57Z</time>
      </trkpt>
      <trkpt lat="49.02305" lon="1.16693">
        <ele>114.73716</ele>
        <time>2019-12-17T21:15:57Z</time>
      </trkpt>
      <trkpt lat="49.02329" lon="1.16936">
        <ele>110.201263</ele>
        <time>2019-12-17T21:15:57Z</time>
      </trkpt>
      <trkpt lat="49.0232" lon="1.17269">
        <ele>124.376625</ele>
        <time>2019-12-17T21:15:57Z</time>
      </trkpt>
      <trkpt lat="49.02304" lon="1.17325">
        <ele>123.922043</ele>
        <time>2019-12-17T21:15:57Z</time>
      </trkpt>
      <trkpt lat="49.02516" lon="1.1759">
        <ele>126.529297</ele>
        <time>2019-12-17T21:15:57Z</time>
      </trkpt>
      <trkpt lat="49.02576" lon="1.1759">
        <ele>127.990234</ele>
        <time>2019-12-17T21:15:57Z</time>
      </trkpt>
      <trkpt lat="49.02748" lon="1.17653">
        <ele>128.676453</ele>
        <time>2019-12-17T21:15:57Z</time>
      </trkpt>
      <trkpt lat="49.02787" lon="1.17604">
        <ele>127.715652</ele>
        <time>2019-12-17T21:15:57Z</time>
      </trkpt>
      <trkpt lat="49.02913" lon="1.17973">
        <ele>133.334915</ele>
        <time>1999-11-30T00:00:00Z</time>
      </trkpt>
      <trkpt lat="49.02951" lon="1.18087">
        <ele>131.175293</ele>
        <time>2019-12-17T21:15:57Z</time>
      </trkpt>
      <trkpt lat="49.03001" lon="1.18266">
        <ele>133.61084</ele>
        <time>2019-12-17T21:15:57Z</time>
      </trkpt>
      <trkpt lat="49.03131" lon="1.18187">
        <ele>132.186768</ele>
        <time>2019-12-17T21:15:57Z</time>
      </trkpt>
      <trkpt lat="49.03186" lon="1.18156">
        <ele>132.475082</ele>
        <time>2019-12-17T21:15:57Z</time>
      </trkpt>
      <trkpt lat="49.03187" lon="1.18102">
        <ele>134.731339</ele>
        <time>2019-12-17T21:15:57Z</time>
      </trkpt>
      <trkpt lat="49.03184" lon="1.18052">
        <ele>136.053513</ele>
        <time>2019-12-17T21:15:57Z</time>
      </trkpt>
      <trkpt lat="49.03251" lon="1.1798">
        <ele>136.459961</ele>
        <time>2019-12-17T21:15:57Z</time>
      </trkpt>
      <trkpt lat="49.0333" lon="1.17926">
        <ele>135.845703</ele>
        <time>2019-12-17T21:15:57Z</time>
      </trkpt>
      <trkpt lat="49.03375" lon="1.17876">
        <ele>135.500854</ele>
        <time>2019-12-17T21:15:57Z</time>
      </trkpt>
      <trkpt lat="49.034" lon="1.17794">
        <ele>134.200699</ele>
        <time>2019-12-17T21:15:57Z</time>
      </trkpt>
      <trkpt lat="49.03432" lon="1.17766">
        <ele>134.366455</ele>
        <time>2019-12-17T21:15:57Z</time>
      </trkpt>
      <trkpt lat="49.03429" lon="1.17684">
        <ele>135.010406</ele>
        <time>2019-12-17T21:15:57Z</time>
      </trkpt>
      <trkpt lat="49.03389" lon="1.17696">
        <ele>134.109619</ele>
        <time>2019-12-17T21:15:57Z</time>
      </trkpt>
      <trkpt lat="49.03354" lon="1.17666">
        <ele>132.727295</ele>
        <time>2019-12-17T21:15:57Z</time>
      </trkpt>
      <trkpt lat="49.03324" lon="1.17666">
        <ele>132.306122</ele>
        <time>2019-12-17T21:15:57Z</time>
      </trkpt>
      <trkpt lat="49.03301" lon="1.17601">
        <ele>131.872131</ele>
        <time>2019-12-17T21:15:57Z</time>
      </trkpt>
      <trkpt lat="49.03288" lon="1.17537">
        <ele>130.770081</ele>
        <time>2019-12-17T21:15:57Z</time>
      </trkpt>
      <trkpt lat="49.03299" lon="1.17498">
        <ele>128.993683</ele>
        <time>2019-12-17T21:15:57Z</time>
      </trkpt>
      <trkpt lat="49.03282" lon="1.17442">
        <ele>128.501984</ele>
        <time>2019-12-17T21:15:57Z</time>
      </trkpt>
      <trkpt lat="49.03284" lon="1.17396">
        <ele>126.866188</ele>
        <time>2019-12-17T21:15:57Z</time>
      </trkpt>
      <trkpt lat="49.03292" lon="1.17351">
        <ele>124.738281</ele>
        <time>2019-12-17T21:15:57Z</time>
      </trkpt>
      <trkpt lat="49.03333" lon="1.17324">
        <ele>122.88253</ele>
        <time>2019-12-17T21:15:57Z</time>
      </trkpt>
      <trkpt lat="49.03364" lon="1.17351">
        <ele>123.631348</ele>
        <time>2019-12-17T21:15:57Z</time>
      </trkpt>
      <trkpt lat="49.03395" lon="1.17392">
        <ele>125.088867</ele>
        <time>2019-12-17T21:15:57Z</time>
      </trkpt>
      <trkpt lat="49.0342" lon="1.17447">
        <ele>127.868538</ele>
        <time>2019-12-17T21:15:57Z</time>
      </trkpt>
      <trkpt lat="49.03432" lon="1.17467">
        <ele>129.444</ele>
        <time>2019-12-17T21:15:57Z</time>
      </trkpt>
      <trkpt lat="49.03433" lon="1.17424">
        <ele>126.99884</ele>
        <time>2019-12-17T21:15:57Z</time>
      </trkpt>
      <trkpt lat="49.03427" lon="1.17377">
        <ele>124.935059</ele>
        <time>2019-12-17T21:15:57Z</time>
      </trkpt>
      <trkpt lat="49.0346" lon="1.17356">
        <ele>125.359863</ele>
        <time>2019-12-17T21:15:57Z</time>
      </trkpt>
      <trkpt lat="49.03454" lon="1.1728">
        <ele>123.469032</ele>
        <time>2019-12-17T21:15:57Z</time>
      </trkpt>
      <trkpt lat="49.03451" lon="1.17256">
        <ele>123.074966</ele>
        <time>2019-12-17T21:15:57Z</time>
      </trkpt>
      <trkpt lat="49.03434" lon="1.17222">
        <ele>123.074265</ele>
        <time>2019-12-17T21:15:57Z</time>
      </trkpt>
      <trkpt lat="49.03437" lon="1.17193">
        <ele>123.172455</ele>
        <time>2019-12-17T21:15:57Z</time>
      </trkpt>
      <trkpt lat="49.03394" lon="1.17194">
        <ele>122.730957</ele>
        <time>2019-12-17T21:15:57Z</time>
      </trkpt>
      <trkpt lat="49.03372" lon="1.17206">
        <ele>122.46875</ele>
        <time>2019-12-17T21:15:57Z</time>
      </trkpt>
      <trkpt lat="49.03359" lon="1.17169">
        <ele>122.304443</ele>
        <time>2019-12-17T21:15:57Z</time>
      </trkpt>
      <trkpt lat="49.03375" lon="1.1711">
        <ele>123.185593</ele>
        <time>2019-12-17T21:15:57Z</time>
      </trkpt>
      <trkpt lat="49.03399" lon="1.17032">
        <ele>125.596436</ele>
        <time>2019-12-17T21:15:57Z</time>
      </trkpt>
      <trkpt lat="49.03418" lon="1.16974">
        <ele>127.006332</ele>
        <time>2019-12-17T21:15:57Z</time>
      </trkpt>
      <trkpt lat="49.03448" lon="1.16936">
        <ele>126.793213</ele>
        <time>2019-12-17T21:15:57Z</time>
      </trkpt>
      <trkpt lat="49.03477" lon="1.16894">
        <ele>125.63131</ele>
        <time>2019-12-17T21:15:57Z</time>
      </trkpt>
      <trkpt lat="49.03507" lon="1.16853">
        <ele>125.170822</ele>
        <time>2019-12-17T21:15:57Z</time>
      </trkpt>
      <trkpt lat="49.0354" lon="1.1681">
        <ele>124.224388</ele>
        <time>2019-12-17T21:15:57Z</time>
      </trkpt>
      <trkpt lat="49.03642" lon="1.16991">
        <ele>125.922615</ele>
        <time>2019-12-17T21:15:57Z</time>
      </trkpt>
      <trkpt lat="49.03687" lon="1.16881">
        <ele>125.921631</ele>
        <time>2019-12-17T21:15:57Z</time>
      </trkpt>
      <trkpt lat="49.03688" lon="1.16774">
        <ele>127.094254</ele>
        <time>2019-12-17T21:15:57Z</time>
      </trkpt>
      <trkpt lat="49.03646" lon="1.16703">
        <ele>121.820267</ele>
        <time>2019-12-17T21:15:57Z</time>
      </trkpt>
      <trkpt lat="49.037" lon="1.16667">
        <ele>119.008774</ele>
        <time>2019-12-17T21:15:57Z</time>
      </trkpt>
      <trkpt lat="49.03759" lon="1.16637">
        <ele>112.862747</ele>
        <time>2019-12-17T21:15:57Z</time>
      </trkpt>
      <trkpt lat="49.03818" lon="1.16636">
        <ele>114.539101</ele>
        <time>2019-12-17T21:15:57Z</time>
      </trkpt>
      <trkpt lat="49.03872" lon="1.16662">
        <ele>117.737747</ele>
        <time>2019-12-17T21:15:57Z</time>
      </trkpt>
      <trkpt lat="49.03924" lon="1.16691">
        <ele>117.220398</ele>
        <time>2019-12-17T21:15:57Z</time>
      </trkpt>
      <trkpt lat="49.03976" lon="1.16666">
        <ele>108.759415</ele>
        <time>2019-12-17T21:15:57Z</time>
      </trkpt>
      <trkpt lat="49.04026" lon="1.16605">
        <ele>95.203186</ele>
        <time>2019-12-17T21:15:57Z</time>
      </trkpt>
      <trkpt lat="49.04077" lon="1.16534">
        <ele>81.232346</ele>
        <time>2019-12-17T21:15:57Z</time>
      </trkpt>
      <trkpt lat="49.04129" lon="1.16515">
        <ele>75.371582</ele>
        <time>2019-12-17T21:15:57Z</time>
      </trkpt>
      <trkpt lat="49.042" lon="1.16506">
        <ele>72.134262</ele>
        <time>2019-12-17T21:15:57Z</time>
      </trkpt>
      <trkpt lat="49.04248" lon="1.165">
        <ele>72.869141</ele>
        <time>2019-12-17T21:15:57Z</time>
      </trkpt>
      <trkpt lat="49.04282" lon="1.16463">
        <ele>67.695801</ele>
        <time>2019-12-17T21:15:57Z</time>
      </trkpt>
      <trkpt lat="49.04358" lon="1.16451">
        <ele>65.631615</ele>
        <time>2019-12-17T21:15:57Z</time>
      </trkpt>
      <trkpt lat="49.04452" lon="1.1647">
        <ele>67.884628</ele>
        <time>2019-12-17T21:15:57Z</time>
      </trkpt>
      <trkpt lat="49.04556" lon="1.16488">
        <ele>65.58252</ele>
        <time>2019-12-17T21:15:57Z</time>
      </trkpt>
      <trkpt lat="49.04672" lon="1.16512">
        <ele>61.491558</ele>
        <time>2019-12-17T21:15:57Z</time>
      </trkpt>
      <trkpt lat="49.04705" lon="1.16478">
        <ele>59.898205</ele>
        <time>2019-12-17T21:15:57Z</time>
      </trkpt>
      <trkpt lat="49.04679" lon="1.16416">
        <ele>58.67384</ele>
        <time>2019-12-17T21:15:57Z</time>
      </trkpt>
      <trkpt lat="49.04616" lon="1.16395">
        <ele>58.913586</ele>
        <time>2019-12-17T21:15:57Z</time>
      </trkpt>
      <trkpt lat="49.04589" lon="1.16383">
        <ele>58.729778</ele>
        <time>2019-12-17T21:15:57Z</time>
      </trkpt>
      <trkpt lat="49.0464" lon="1.16216">
        <ele>57.136082</ele>
        <time>2019-12-17T21:15:57Z</time>
      </trkpt>
      <trkpt lat="49.04594" lon="1.16163">
        <ele>57.764893</ele>
        <time>2019-12-17T21:15:57Z</time>
      </trkpt>
      <trkpt lat="49.04642" lon="1.16079">
        <ele>55.328403</ele>
        <time>2019-12-17T21:15:57Z</time>
      </trkpt>
      <trkpt lat="49.04688" lon="1.15996">
        <ele>55.622803</ele>
        <time>2019-12-17T21:15:57Z</time>
      </trkpt>
      <trkpt lat="49.04743" lon="1.15935">
        <ele>55.813717</ele>
        <time>2019-12-17T21:15:57Z</time>
      </trkpt>
      <trkpt lat="49.04801" lon="1.15886">
        <ele>56.1464</ele>
        <time>2019-12-17T21:15:57Z</time>
      </trkpt>
      <trkpt lat="49.04809" lon="1.15715">
        <ele>56.878311</ele>
        <time>2019-12-17T21:15:57Z</time>
      </trkpt>
      <trkpt lat="49.04813" lon="1.15507">
        <ele>64.906036</ele>
        <time>2019-12-17T21:15:57Z</time>
      </trkpt>
      <trkpt lat="49.04754" lon="1.15504">
        <ele>65.861633</ele>
        <time>2019-12-17T21:15:57Z</time>
      </trkpt>
      <trkpt lat="49.04762" lon="1.15448">
        <ele>69.541512</ele>
        <time>2019-12-17T21:15:57Z</time>
      </trkpt>
      <trkpt lat="49.04678" lon="1.15434">
        <ele>67.726173</ele>
        <time>2019-12-17T21:15:57Z</time>
      </trkpt>
      <trkpt lat="49.04573" lon="1.15443">
        <ele>65.852066</ele>
        <time>2019-12-17T21:15:57Z</time>
      </trkpt>
      <trkpt lat="49.0445" lon="1.15473">
        <ele>64.460159</ele>
        <time>2019-12-17T21:15:57Z</time>
      </trkpt>
      <trkpt lat="49.04453" lon="1.15554">
        <ele>62.92627</ele>
        <time>2019-12-17T21:15:57Z</time>
      </trkpt>
      <trkpt lat="49.04455" lon="1.15644">
        <ele>61.48914</ele>
        <time>2019-12-17T21:15:57Z</time>
      </trkpt>
      <trkpt lat="49.04464" lon="1.1571">
        <ele>59.903675</ele>
        <time>2019-12-17T21:15:57Z</time>
      </trkpt>
      <trkpt lat="49.04458" lon="1.15748">
        <ele>59.05481</ele>
        <time>2019-12-17T21:15:57Z</time>
      </trkpt>
      <trkpt lat="49.04375" lon="1.15752">
        <ele>59.479019</ele>
        <time>2019-12-17T21:15:57Z</time>
      </trkpt>
      <trkpt lat="49.04279" lon="1.15751">
        <ele>59.998974</ele>
        <time>2019-12-17T21:15:57Z</time>
      </trkpt>
      <trkpt lat="49.04151" lon="1.15738">
        <ele>61.054989</ele>
        <time>2019-12-17T21:15:57Z</time>
      </trkpt>
      <trkpt lat="49.04176" lon="1.15496">
        <ele>64.94474</ele>
        <time>2019-12-17T21:15:57Z</time>
      </trkpt>
      <trkpt lat="49.03973" lon="1.15477">
        <ele>68.754738</ele>
        <time>2019-12-17T21:15:57Z</time>
      </trkpt>
      <trkpt lat="49.03778" lon="1.15469">
        <ele>71.06514</ele>
        <time>2019-12-17T21:15:57Z</time>
      </trkpt>
      <trkpt lat="49.03604" lon="1.15475">
        <ele>76.240326</ele>
        <time>2019-12-17T21:15:57Z</time>
      </trkpt>
      <trkpt lat="49.03602" lon="1.15594">
        <ele>68.360352</ele>
        <time>2019-12-17T21:15:57Z</time>
      </trkpt>
      <trkpt lat="49.03546" lon="1.15574">
        <ele>69.248207</ele>
        <time>2019-12-17T21:15:57Z</time>
      </trkpt>
      <trkpt lat="49.0347" lon="1.15552">
        <ele>67.956322</ele>
        <time>2019-12-17T21:15:57Z</time>
      </trkpt>
      <trkpt lat="49.03463" lon="1.15508">
        <ele>69.90905</ele>
        <time>2019-12-17T21:15:57Z</time>
      </trkpt>
      <trkpt lat="49.03453" lon="1.15442">
        <ele>73.405121</ele>
        <time>2019-12-17T21:15:57Z</time>
      </trkpt>
      <trkpt lat="49.03425" lon="1.15372">
        <ele>75.822418</ele>
        <time>2019-12-17T21:15:57Z</time>
      </trkpt>
      <trkpt lat="49.03406" lon="1.15319">
        <ele>78.817215</ele>
        <time>2019-12-17T21:15:57Z</time>
      </trkpt>
      <trkpt lat="49.03399" lon="1.15208">
        <ele>86.59465</ele>
        <time>2019-12-17T21:15:57Z</time>
      </trkpt>
      <trkpt lat="49.03398" lon="1.15091">
        <ele>92.028755</ele>
        <time>2019-12-17T21:15:57Z</time>
      </trkpt>
      <trkpt lat="49.03413" lon="1.14946">
        <ele>96.499687</ele>
        <time>2019-12-17T21:15:57Z</time>
      </trkpt>
      <trkpt lat="49.03376" lon="1.14966">
        <ele>97.231323</ele>
        <time>2019-12-17T21:15:57Z</time>
      </trkpt>
      <trkpt lat="49.03338" lon="1.15092">
        <ele>89.691635</ele>
        <time>2019-12-17T21:15:57Z</time>
      </trkpt>
      <trkpt lat="49.03341" lon="1.15271">
        <ele>79.874916</ele>
        <time>2019-12-17T21:15:57Z</time>
      </trkpt>
      <trkpt lat="49.03302" lon="1.15131">
        <ele>90.774002</ele>
        <time>2019-12-17T21:15:57Z</time>
      </trkpt>
      <trkpt lat="49.03231" lon="1.15033">
        <ele>103.206451</ele>
        <time>2019-12-17T21:15:57Z</time>
      </trkpt>
      <trkpt lat="49.0317" lon="1.14881">
        <ele>112.838295</ele>
        <time>2019-12-17T21:15:57Z</time>
      </trkpt>
      <trkpt lat="49.03131" lon="1.14735">
        <ele>117.128197</ele>
        <time>2019-12-17T21:15:57Z</time>
      </trkpt>
      <trkpt lat="49.0317" lon="1.14775">
        <ele>120.95298</ele>
        <time>2019-12-17T21:15:57Z</time>
      </trkpt>
      <trkpt lat="49.03222" lon="1.14774">
        <ele>118.221146</ele>
        <time>2019-12-17T21:15:57Z</time>
      </trkpt>
      <trkpt lat="49.03195" lon="1.14717">
        <ele>120.121681</ele>
        <time>2019-12-17T21:15:57Z</time>
      </trkpt>
      <trkpt lat="49.03208" lon="1.1467">
        <ele>118.041069</ele>
        <time>2019-12-17T21:15:57Z</time>
      </trkpt>
      <trkpt lat="49.03251" lon="1.14691">
        <ele>113.292908</ele>
        <time>2019-12-17T21:15:57Z</time>
      </trkpt>
      <trkpt lat="49.033" lon="1.14682">
        <ele>108.246223</ele>
        <time>2019-12-17T21:15:57Z</time>
      </trkpt>
      <trkpt lat="49.03324" lon="1.14746">
        <ele>107.20179</ele>
        <time>2019-12-17T21:15:57Z</time>
      </trkpt>
      <trkpt lat="49.03367" lon="1.14786">
        <ele>105.139259</ele>
        <time>2019-12-17T21:15:57Z</time>
      </trkpt>
      <trkpt lat="49.03396" lon="1.14844">
        <ele>101.774048</ele>
        <time>2019-12-17T21:15:57Z</time>
      </trkpt>
      <trkpt lat="49.03385" lon="1.14753">
        <ele>105.918053</ele>
        <time>2019-12-17T21:15:57Z</time>
      </trkpt>
      <trkpt lat="49.03356" lon="1.14687">
        <ele>107.558975</ele>
        <time>2019-12-17T21:15:57Z</time>
      </trkpt>
      <trkpt lat="49.03307" lon="1.14576">
        <ele>111.198212</ele>
        <time>2019-12-17T21:15:57Z</time>
      </trkpt>
      <trkpt lat="49.03273" lon="1.14502">
        <ele>115.546555</ele>
        <time>2019-12-17T21:15:57Z</time>
      </trkpt>
      <trkpt lat="49.03314" lon="1.14464">
        <ele>122.877563</ele>
        <time>2019-12-17T21:15:57Z</time>
      </trkpt>
      <trkpt lat="49.03362" lon="1.1447">
        <ele>125.767395</ele>
        <time>2019-12-17T21:15:57Z</time>
      </trkpt>
      <trkpt lat="49.03412" lon="1.14541">
        <ele>125.963547</ele>
        <time>2019-12-17T21:15:57Z</time>
      </trkpt>
      <trkpt lat="49.03466" lon="1.14624">
        <ele>124.511177</ele>
        <time>2019-12-17T21:15:57Z</time>
      </trkpt>
      <trkpt lat="49.03537" lon="1.14714">
        <ele>126.659775</ele>
        <time>2019-12-17T21:15:57Z</time>
      </trkpt>
      <trkpt lat="49.036" lon="1.14809">
        <ele>125.084145</ele>
        <time>2019-12-17T21:15:57Z</time>
      </trkpt>
      <trkpt lat="49.03699" lon="1.14759">
        <ele>126.413956</ele>
        <time>2019-12-17T21:15:57Z</time>
      </trkpt>
      <trkpt lat="49.03799" lon="1.14673">
        <ele>126.367279</ele>
        <time>2019-12-17T21:15:57Z</time>
      </trkpt>
      <trkpt lat="49.03857" lon="1.14484">
        <ele>128.001068</ele>
        <time>2019-12-17T21:15:57Z</time>
      </trkpt>
      <trkpt lat="49.0387" lon="1.14347">
        <ele>130.833038</ele>
        <time>2019-12-17T21:15:57Z</time>
      </trkpt>
      <trkpt lat="49.03875" lon="1.14218">
        <ele>133.24707</ele>
        <time>2019-12-17T21:15:57Z</time>
      </trkpt>
      <trkpt lat="49.03893" lon="1.14186">
        <ele>132.513672</ele>
        <time>2019-12-17T21:15:57Z</time>
      </trkpt>
      <trkpt lat="49.03852" lon="1.14142">
        <ele>137.244461</ele>
        <time>2019-12-17T21:15:57Z</time>
      </trkpt>
      <trkpt lat="49.03783" lon="1.14121">
        <ele>136.256668</ele>
        <time>2019-12-17T21:15:57Z</time>
      </trkpt>
      <trkpt lat="49.03732" lon="1.14195">
        <ele>133.558105</ele>
        <time>2019-12-17T21:15:57Z</time>
      </trkpt>
      <trkpt lat="49.03688" lon="1.14226">
        <ele>132.506836</ele>
        <time>2019-12-17T21:15:57Z</time>
      </trkpt>
      <trkpt lat="49.03661" lon="1.14267">
        <ele>132.049026</ele>
        <time>2019-12-17T21:15:57Z</time>
      </trkpt>
      <trkpt lat="49.03635" lon="1.14321">
        <ele>132.056549</ele>
        <time>2019-12-17T21:15:57Z</time>
      </trkpt>
      <trkpt lat="49.03599" lon="1.14375">
        <ele>131.196869</ele>
        <time>2019-12-17T21:15:57Z</time>
      </trkpt>
      <trkpt lat="49.03552" lon="1.14378">
        <ele>130.392563</ele>
        <time>2019-12-17T21:15:57Z</time>
      </trkpt>
      <trkpt lat="49.0349" lon="1.14408">
        <ele>129.378876</ele>
        <time>2019-12-17T21:15:57Z</time>
      </trkpt>
      <trkpt lat="49.03428" lon="1.14354">
        <ele>132.778275</ele>
        <time>2019-12-17T21:15:57Z</time>
      </trkpt>
      <trkpt lat="49.03377" lon="1.14299">
        <ele>133.308762</ele>
        <time>2019-12-17T21:15:57Z</time>
      </trkpt>
      <trkpt lat="49.03362" lon="1.14268">
        <ele>133.072479</ele>
        <time>2019-12-17T21:15:57Z</time>
      </trkpt>
      <trkpt lat="49.03335" lon="1.14243">
        <ele>132.913879</ele>
        <time>2019-12-17T21:15:57Z</time>
      </trkpt>
      <trkpt lat="49.03327" lon="1.14198">
        <ele>132.002426</ele>
        <time>2019-12-17T21:15:57Z</time>
      </trkpt>
      <trkpt lat="49.03326" lon="1.14146">
        <ele>131.015778</ele>
        <time>2019-12-17T21:15:57Z</time>
      </trkpt>
      <trkpt lat="49.0333" lon="1.1409">
        <ele>129.191208</ele>
        <time>2019-12-17T21:15:57Z</time>
      </trkpt>
      <trkpt lat="49.03327" lon="1.14032">
        <ele>129.40358</ele>
        <time>2019-12-17T21:15:57Z</time>
      </trkpt>
      <trkpt lat="49.03318" lon="1.1397">
        <ele>129.498886</ele>
        <time>2019-12-17T21:15:57Z</time>
      </trkpt>
      <trkpt lat="49.03326" lon="1.13931">
        <ele>130.338989</ele>
        <time>2019-12-17T21:15:57Z</time>
      </trkpt>
      <trkpt lat="49.03332" lon="1.13907">
        <ele>130.564758</ele>
        <time>2019-12-17T21:15:57Z</time>
      </trkpt>
      <trkpt lat="49.03363" lon="1.13924">
        <ele>131.672333</ele>
        <time>2019-12-17T21:15:57Z</time>
      </trkpt>
      <trkpt lat="49.03411" lon="1.13951">
        <ele>132.842911</ele>
        <time>2019-12-17T21:15:57Z</time>
      </trkpt>
      <trkpt lat="49.03468" lon="1.13982">
        <ele>132.789398</ele>
        <time>2019-12-17T21:15:57Z</time>
      </trkpt>
      <trkpt lat="49.03498" lon="1.13987">
        <ele>132.511826</ele>
        <time>2019-12-17T21:15:57Z</time>
      </trkpt>
      <trkpt lat="49.03537" lon="1.13916">
        <ele>134.983566</ele>
        <time>2019-12-17T21:15:57Z</time>
      </trkpt>
      <trkpt lat="49.03589" lon="1.13851">
        <ele>135.701172</ele>
        <time>2019-12-17T21:15:57Z</time>
      </trkpt>
      <trkpt lat="49.03649" lon="1.13799">
        <ele>135.627441</ele>
        <time>2019-12-17T21:15:57Z</time>
      </trkpt>
      <trkpt lat="49.03674" lon="1.1379">
        <ele>135.604645</ele>
        <time>2019-12-17T21:15:57Z</time>
      </trkpt>
      <trkpt lat="49.03685" lon="1.13724">
        <ele>135.182022</ele>
        <time>2019-12-17T21:15:57Z</time>
      </trkpt>
      <trkpt lat="49.03695" lon="1.13654">
        <ele>133.307541</ele>
        <time>2019-12-17T21:15:57Z</time>
      </trkpt>
      <trkpt lat="49.03759" lon="1.13668">
        <ele>134.812332</ele>
        <time>2019-12-17T21:15:57Z</time>
      </trkpt>
      <trkpt lat="49.03864" lon="1.13711">
        <ele>135.303757</ele>
        <time>2019-12-17T21:15:57Z</time>
      </trkpt>
      <trkpt lat="49.03986" lon="1.13721">
        <ele>132.383011</ele>
        <time>2019-12-17T21:15:57Z</time>
      </trkpt>
      <trkpt lat="49.03995" lon="1.13651">
        <ele>131.15834</ele>
        <time>2019-12-17T21:15:57Z</time>
      </trkpt>
      <trkpt lat="49.04072" lon="1.13537">
        <ele>132.50972</ele>
        <time>2019-12-17T21:15:57Z</time>
      </trkpt>
      <trkpt lat="49.04033" lon="1.13433">
        <ele>133.487854</ele>
        <time>2019-12-17T21:15:57Z</time>
      </trkpt>
      <trkpt lat="49.04116" lon="1.13369">
        <ele>134.360352</ele>
        <time>2019-12-17T21:15:57Z</time>
      </trkpt>
      <trkpt lat="49.04117" lon="1.13328">
        <ele>134.70549</ele>
        <time>2019-12-17T21:15:57Z</time>
      </trkpt>
      <trkpt lat="49.04178" lon="1.13277">
        <ele>134.723679</ele>
        <time>2019-12-17T21:15:57Z</time>
      </trkpt>
      <trkpt lat="49.0424" lon="1.13317">
        <ele>135.775345</ele>
        <time>2019-12-17T21:15:57Z</time>
      </trkpt>
      <trkpt lat="49.04255" lon="1.13293">
        <ele>135.619629</ele>
        <time>2019-12-17T21:15:57Z</time>
      </trkpt>
      <trkpt lat="49.04205" lon="1.13201">
        <ele>134.189896</ele>
        <time>2019-12-17T21:15:57Z</time>
      </trkpt>
      <trkpt lat="49.0416" lon="1.13072">
        <ele>134.919922</ele>
        <time>2019-12-17T21:15:57Z</time>
      </trkpt>
      <trkpt lat="49.04159" lon="1.12939">
        <ele>133.570038</ele>
        <time>2019-12-17T21:15:57Z</time>
      </trkpt>
      <trkpt lat="49.04181" lon="1.12877">
        <ele>134.020294</ele>
        <time>2019-12-17T21:15:57Z</time>
      </trkpt>
      <trkpt lat="49.04185" lon="1.12758">
        <ele>135.561966</ele>
        <time>2019-12-17T21:15:57Z</time>
      </trkpt>
      <trkpt lat="49.0421" lon="1.12619">
        <ele>135.275375</ele>
        <time>2019-12-17T21:15:57Z</time>
      </trkpt>
      <trkpt lat="49.04264" lon="1.12537">
        <ele>135.86676</ele>
        <time>2019-12-17T21:15:57Z</time>
      </trkpt>
      <trkpt lat="49.04233" lon="1.12433">
        <ele>140.663086</ele>
        <time>2019-12-17T21:15:57Z</time>
      </trkpt>
      <trkpt lat="49.04245" lon="1.1239">
        <ele>141.750977</ele>
        <time>2019-12-17T21:15:57Z</time>
      </trkpt>
      <trkpt lat="49.04276" lon="1.1235">
        <ele>141.672607</ele>
        <time>2019-12-17T21:15:57Z</time>
      </trkpt>
      <trkpt lat="49.04306" lon="1.1231">
        <ele>140.379166</ele>
        <time>2019-12-17T21:15:57Z</time>
      </trkpt>
      <trkpt lat="49.04325" lon="1.12243">
        <ele>137.060257</ele>
        <time>2019-12-17T21:15:57Z</time>
      </trkpt>
      <trkpt lat="49.04342" lon="1.12161">
        <ele>130.499863</ele>
        <time>2019-12-17T21:15:57Z</time>
      </trkpt>
      <trkpt lat="49.04325" lon="1.12092">
        <ele>128.595078</ele>
        <time>2019-12-17T21:15:57Z</time>
      </trkpt>
      <trkpt lat="49.04295" lon="1.11974">
        <ele>132.221191</ele>
        <time>2019-12-17T21:15:57Z</time>
      </trkpt>
      <trkpt lat="49.04263" lon="1.11861">
        <ele>133.727814</ele>
        <time>2019-12-17T21:15:57Z</time>
      </trkpt>
      <trkpt lat="49.04263" lon="1.11739">
        <ele>132.940872</ele>
        <time>2019-12-17T21:15:57Z</time>
      </trkpt>
      <trkpt lat="49.0425" lon="1.11671">
        <ele>134.020752</ele>
        <time>2019-12-17T21:15:57Z</time>
      </trkpt>
      <trkpt lat="49.04254" lon="1.11594">
        <ele>130.576187</ele>
        <time>2019-12-17T21:15:57Z</time>
      </trkpt>
      <trkpt lat="49.04271" lon="1.11524">
        <ele>131.114655</ele>
        <time>2019-12-17T21:15:57Z</time>
      </trkpt>
      <trkpt lat="49.04262" lon="1.115">
        <ele>130.764648</ele>
        <time>2019-12-17T21:15:57Z</time>
      </trkpt>
      <trkpt lat="49.04229" lon="1.1153">
        <ele>132.041016</ele>
        <time>2019-12-17T21:15:57Z</time>
      </trkpt>
      <trkpt lat="49.04179" lon="1.11613">
        <ele>137.307617</ele>
        <time>2019-12-17T21:15:57Z</time>
      </trkpt>
      <trkpt lat="49.04135" lon="1.11767">
        <ele>140.308151</ele>
        <time>2019-12-17T21:15:57Z</time>
      </trkpt>
      <trkpt lat="49.04004" lon="1.11733">
        <ele>140.641449</ele>
        <time>2019-12-17T21:15:57Z</time>
      </trkpt>
      <trkpt lat="49.03961" lon="1.11789">
        <ele>139.583008</ele>
        <time>2019-12-17T21:15:57Z</time>
      </trkpt>
      <trkpt lat="49.03964" lon="1.11876">
        <ele>141.204315</ele>
        <time>2019-12-17T21:15:57Z</time>
      </trkpt>
      <trkpt lat="49.03945" lon="1.11964">
        <ele>141.86586</ele>
        <time>2019-12-17T21:15:57Z</time>
      </trkpt>
      <trkpt lat="49.03944" lon="1.12081">
        <ele>141.367752</ele>
        <time>2019-12-17T21:15:57Z</time>
      </trkpt>
      <trkpt lat="49.03905" lon="1.12256">
        <ele>140.449326</ele>
        <time>2019-12-17T21:15:57Z</time>
      </trkpt>
      <trkpt lat="49.03842" lon="1.12312">
        <ele>140.180847</ele>
        <time>2019-12-17T21:15:57Z</time>
      </trkpt>
      <trkpt lat="49.03796" lon="1.12329">
        <ele>140.937775</ele>
        <time>2019-12-17T21:15:57Z</time>
      </trkpt>
      <trkpt lat="49.03773" lon="1.1242">
        <ele>138.338745</ele>
        <time>2019-12-17T21:15:57Z</time>
      </trkpt>
      <trkpt lat="49.03701" lon="1.12537">
        <ele>135.826782</ele>
        <time>2019-12-17T21:15:57Z</time>
      </trkpt>
      <trkpt lat="49.03654" lon="1.1246">
        <ele>136.660324</ele>
        <time>2019-12-17T21:15:57Z</time>
      </trkpt>
      <trkpt lat="49.03662" lon="1.12253">
        <ele>139.0672</ele>
        <time>2019-12-17T21:15:57Z</time>
      </trkpt>
      <trkpt lat="49.03612" lon="1.11951">
        <ele>124.336098</ele>
        <time>2019-12-17T21:15:57Z</time>
      </trkpt>
      <trkpt lat="49.03564" lon="1.11853">
        <ele>108.485115</ele>
        <time>2019-12-17T21:15:57Z</time>
      </trkpt>
      <trkpt lat="49.03469" lon="1.12035">
        <ele>100.543564</ele>
        <time>2019-12-17T21:15:57Z</time>
      </trkpt>
      <trkpt lat="49.0342" lon="1.11835">
        <ele>96.091866</ele>
        <time>2019-12-17T21:15:57Z</time>
      </trkpt>
      <trkpt lat="49.03365" lon="1.11824">
        <ele>99.747215</ele>
        <time>2019-12-17T21:15:57Z</time>
      </trkpt>
      <trkpt lat="49.03369" lon="1.11778">
        <ele>99.563271</ele>
        <time>2019-12-17T21:15:57Z</time>
      </trkpt>
      <trkpt lat="49.03415" lon="1.11733">
        <ele>95.775627</ele>
        <time>2019-12-17T21:15:57Z</time>
      </trkpt>
      <trkpt lat="49.03409" lon="1.11582">
        <ele>107.134789</ele>
        <time>2019-12-17T21:15:57Z</time>
      </trkpt>
      <trkpt lat="49.03399" lon="1.11406">
        <ele>113.074806</ele>
        <time>2019-12-17T21:15:57Z</time>
      </trkpt>
      <trkpt lat="49.03408" lon="1.1122">
        <ele>120.235435</ele>
        <time>2019-12-17T21:15:57Z</time>
      </trkpt>
      <trkpt lat="49.03326" lon="1.1103">
        <ele>131.197754</ele>
        <time>2019-12-17T21:15:57Z</time>
      </trkpt>
      <trkpt lat="49.03387" lon="1.10955">
        <ele>128.711563</ele>
        <time>2019-12-17T21:15:57Z</time>
      </trkpt>
      <trkpt lat="49.03314" lon="1.10809">
        <ele>141.289108</ele>
        <time>2019-12-17T21:15:57Z</time>
      </trkpt>
      <trkpt lat="49.03297" lon="1.10701">
        <ele>142.31076</ele>
        <time>2019-12-17T21:15:57Z</time>
      </trkpt>
      <trkpt lat="49.0337" lon="1.10557">
        <ele>136.293808</ele>
        <time>2019-12-17T21:15:57Z</time>
      </trkpt>
      <trkpt lat="49.034" lon="1.10419">
        <ele>132.983429</ele>
        <time>2019-12-17T21:15:57Z</time>
      </trkpt>
      <trkpt lat="49.03318" lon="1.10269">
        <ele>135</ele>
        <time>2019-12-17T21:15:57Z</time>
      </trkpt>
      <trkpt lat="49.03295" lon="1.10047">
        <ele>134.777542</ele>
        <time>2019-12-17T21:15:57Z</time>
      </trkpt>
      <trkpt lat="49.03288" lon="1.09794">
        <ele>135.953415</ele>
        <time>2019-12-17T21:15:57Z</time>
      </trkpt>
      <trkpt lat="49.03301" lon="1.09586">
        <ele>137.457748</ele>
        <time>2019-12-17T21:15:57Z</time>
      </trkpt>
      <trkpt lat="49.03359" lon="1.09324">
        <ele>137.234665</ele>
        <time>2019-12-17T21:15:57Z</time>
      </trkpt>
      <trkpt lat="49.0331" lon="1.0906">
        <ele>136.154297</ele>
        <time>2019-12-17T21:15:57Z</time>
      </trkpt>
      <trkpt lat="49.03224" lon="1.08852">
        <ele>134.232605</ele>
        <time>2019-12-17T21:15:57Z</time>
      </trkpt>
      <trkpt lat="49.03052" lon="1.08851">
        <ele>133.553009</ele>
        <time>2019-12-17T21:15:57Z</time>
      </trkpt>
      <trkpt lat="49.02952" lon="1.08834">
        <ele>132.993652</ele>
        <time>2019-12-17T21:15:57Z</time>
      </trkpt>
      <trkpt lat="49.02762" lon="1.08675">
        <ele>134.728928</ele>
        <time>2019-12-17T21:15:57Z</time>
      </trkpt>
      <trkpt lat="49.02734" lon="1.08736">
        <ele>134.740036</ele>
        <time>2019-12-17T21:15:57Z</time>
      </trkpt>
      <trkpt lat="49.02765" lon="1.08979">
        <ele>134.3927</ele>
        <time>2019-12-17T21:15:57Z</time>
      </trkpt>
      <trkpt lat="49.02763" lon="1.09249">
        <ele>131.857666</ele>
        <time>2019-12-17T21:15:57Z</time>
      </trkpt>
      <trkpt lat="49.02694" lon="1.09579">
        <ele>133.267914</ele>
        <time>2019-12-17T21:15:57Z</time>
      </trkpt>
      <trkpt lat="49.02605" lon="1.09813">
        <ele>133.199463</ele>
        <time>2019-12-17T21:15:57Z</time>
      </trkpt>
      <trkpt lat="49.02573" lon="1.09999">
        <ele>135.756927</ele>
        <time>2019-12-17T21:15:57Z</time>
      </trkpt>
      <trkpt lat="49.02548" lon="1.10193">
        <ele>130.044388</ele>
        <time>2019-12-17T21:15:57Z</time>
      </trkpt>
      <trkpt lat="49.025" lon="1.1038">
        <ele>128.444824</ele>
        <time>2019-12-17T21:15:57Z</time>
      </trkpt>
      <trkpt lat="49.02459" lon="1.10536">
        <ele>129.458115</ele>
        <time>2019-12-17T21:15:57Z</time>
      </trkpt>
      <trkpt lat="49.02433" lon="1.10638">
        <ele>133.219574</ele>
        <time>2019-12-17T21:15:57Z</time>
      </trkpt>
      <trkpt lat="49.02396" lon="1.10718">
        <ele>130.911331</ele>
        <time>2019-12-17T21:15:57Z</time>
      </trkpt>
      <trkpt lat="49.02341" lon="1.1078">
        <ele>122.260361</ele>
        <time>2019-12-17T21:15:57Z</time>
      </trkpt>
      <trkpt lat="49.02312" lon="1.10862">
        <ele>114.517059</ele>
        <time>2019-12-17T21:15:57Z</time>
      </trkpt>
      <trkpt lat="49.02287" lon="1.10938">
        <ele>112.63736</ele>
        <time>2019-12-17T21:15:57Z</time>
      </trkpt>
      <trkpt lat="49.02288" lon="1.10987">
        <ele>113.064911</ele>
        <time>2019-12-17T21:15:57Z</time>
      </trkpt>
      <trkpt lat="49.02286" lon="1.11023">
        <ele>113.587013</ele>
        <time>2019-12-17T21:15:57Z</time>
      </trkpt>
      <trkpt lat="49.02323" lon="1.11072">
        <ele>111.723061</ele>
        <time>2019-12-17T21:15:57Z</time>
      </trkpt>
      <trkpt lat="49.0236" lon="1.11162">
        <ele>111.997841</ele>
        <time>2019-12-17T21:15:57Z</time>
      </trkpt>
      <trkpt lat="49.02385" lon="1.11246">
        <ele>108.80275</ele>
        <time>2019-12-17T21:15:57Z</time>
      </trkpt>
      <trkpt lat="49.02369" lon="1.1135">
        <ele>105.831146</ele>
        <time>2019-12-17T21:15:57Z</time>
      </trkpt>
      <trkpt lat="49.02351" lon="1.11368">
        <ele>105.827408</ele>
        <time>2019-12-17T21:15:57Z</time>
      </trkpt>
      <trkpt lat="49.02318" lon="1.11298">
        <ele>107.859367</ele>
        <time>2019-12-17T21:15:57Z</time>
      </trkpt>
      <trkpt lat="49.02272" lon="1.11185">
        <ele>114.982712</ele>
        <time>2019-12-17T21:15:57Z</time>
      </trkpt>
      <trkpt lat="49.02225" lon="1.11059">
        <ele>116.766251</ele>
        <time>2019-12-17T21:15:57Z</time>
      </trkpt>
      <trkpt lat="49.02199" lon="1.1104">
        <ele>117.22908</ele>
        <time>2019-12-17T21:15:57Z</time>
      </trkpt>
      <trkpt lat="49.0215" lon="1.11089">
        <ele>116.293457</ele>
        <time>2019-12-17T21:15:57Z</time>
      </trkpt>
      <trkpt lat="49.02148" lon="1.11135">
        <ele>113.487793</ele>
        <time>2019-12-17T21:15:57Z</time>
      </trkpt>
      <trkpt lat="49.02197" lon="1.11228">
        <ele>112.08979</ele>
        <time>2019-12-17T21:15:57Z</time>
      </trkpt>
      <trkpt lat="49.02237" lon="1.11331">
        <ele>110.333809</ele>
        <time>2019-12-17T21:15:57Z</time>
      </trkpt>
      <trkpt lat="49.02282" lon="1.11403">
        <ele>108.584</ele>
        <time>2019-12-17T21:15:57Z</time>
      </trkpt>
      <trkpt lat="49.02298" lon="1.11484">
        <ele>105.638397</ele>
        <time>2019-12-17T21:15:57Z</time>
      </trkpt>
      <trkpt lat="49.02283" lon="1.11552">
        <ele>104.027565</ele>
        <time>2019-12-17T21:15:57Z</time>
      </trkpt>
      <trkpt lat="49.02304" lon="1.11602">
        <ele>100.219345</ele>
        <time>2019-12-17T21:15:57Z</time>
      </trkpt>
      <trkpt lat="49.0228" lon="1.11678">
        <ele>99.384712</ele>
        <time>2019-12-17T21:15:57Z</time>
      </trkpt>
      <trkpt lat="49.0224" lon="1.11734">
        <ele>98.981888</ele>
        <time>2019-12-17T21:15:57Z</time>
      </trkpt>
      <trkpt lat="49.02227" lon="1.11722">
        <ele>99.802589</ele>
        <time>2019-12-17T21:15:57Z</time>
      </trkpt>
      <trkpt lat="49.0224" lon="1.11641">
        <ele>103.158524</ele>
        <time>2019-12-17T21:15:57Z</time>
      </trkpt>
      <trkpt lat="49.02247" lon="1.11534">
        <ele>106.979408</ele>
        <time>2019-12-17T21:15:57Z</time>
      </trkpt>
      <trkpt lat="49.02212" lon="1.11437">
        <ele>106.549713</ele>
        <time>2019-12-17T21:15:57Z</time>
      </trkpt>
      <trkpt lat="49.02168" lon="1.11333">
        <ele>106.142616</ele>
        <time>2019-12-17T21:15:57Z</time>
      </trkpt>
      <trkpt lat="49.021" lon="1.11243">
        <ele>103.465813</ele>
        <time>2019-12-17T21:15:57Z</time>
      </trkpt>
      <trkpt lat="49.02041" lon="1.11167">
        <ele>103.404785</ele>
        <time>2019-12-17T21:15:57Z</time>
      </trkpt>
      <trkpt lat="49.02085" lon="1.11276">
        <ele>98.191048</ele>
        <time>2019-12-17T21:15:57Z</time>
      </trkpt>
      <trkpt lat="49.02174" lon="1.11428">
        <ele>104.057297</ele>
        <time>2019-12-17T21:15:57Z</time>
      </trkpt>
      <trkpt lat="49.02187" lon="1.11573">
        <ele>102.194099</ele>
        <time>2019-12-17T21:15:57Z</time>
      </trkpt>
      <trkpt lat="49.02136" lon="1.11753">
        <ele>94.403961</ele>
        <time>2019-12-17T21:15:57Z</time>
      </trkpt>
      <trkpt lat="49.02065" lon="1.11815">
        <ele>81.156837</ele>
        <time>2019-12-17T21:15:57Z</time>
      </trkpt>
      <trkpt lat="49.02032" lon="1.11749">
        <ele>76.915665</ele>
        <time>2019-12-17T21:15:57Z</time>
      </trkpt>
      <trkpt lat="49.01976" lon="1.11657">
        <ele>71.873238</ele>
        <time>2019-12-17T21:15:57Z</time>
      </trkpt>
      <trkpt lat="49.01887" lon="1.11627">
        <ele>72.132317</ele>
        <time>2019-12-17T21:15:57Z</time>
      </trkpt>
      <trkpt lat="49.01797" lon="1.11381">
        <ele>77.133789</ele>
        <time>2019-12-17T21:15:57Z</time>
      </trkpt>
      <trkpt lat="49.01734" lon="1.11443">
        <ele>74.803223</ele>
        <time>2019-12-17T21:15:57Z</time>
      </trkpt>
      <trkpt lat="49.0189" lon="1.11836">
        <ele>67.331093</ele>
        <time>2019-12-17T21:15:57Z</time>
      </trkpt>
      <trkpt lat="49.01921" lon="1.11896">
        <ele>67.859108</ele>
        <time>2019-12-17T21:15:57Z</time>
      </trkpt>
      <trkpt lat="49.02007" lon="1.12015">
        <ele>68.21373</ele>
        <time>2019-12-17T21:15:57Z</time>
      </trkpt>
      <trkpt lat="49.02103" lon="1.12141">
        <ele>68.670372</ele>
        <time>2019-12-17T21:15:57Z</time>
      </trkpt>
      <trkpt lat="49.02003" lon="1.12299">
        <ele>66.054329</ele>
        <time>2019-12-17T21:15:57Z</time>
      </trkpt>
      <trkpt lat="49.02116" lon="1.12428">
        <ele>67.149231</ele>
        <time>2019-12-17T21:15:57Z</time>
      </trkpt>
      <trkpt lat="49.02179" lon="1.12476">
        <ele>69.191063</ele>
        <time>2019-12-17T21:15:57Z</time>
      </trkpt>
      <trkpt lat="49.02229" lon="1.12601">
        <ele>67.34935</ele>
        <time>2019-12-17T21:15:57Z</time>
      </trkpt>
      <trkpt lat="49.02198" lon="1.12628">
        <ele>67.247833</ele>
        <time>2019-12-17T21:15:57Z</time>
      </trkpt>
      <trkpt lat="49.02143" lon="1.12561">
        <ele>68.828239</ele>
        <time>2019-12-17T21:15:57Z</time>
      </trkpt>
      <trkpt lat="49.02075" lon="1.12496">
        <ele>66.994659</ele>
        <time>2019-12-17T21:15:57Z</time>
      </trkpt>
      <trkpt lat="49.02019" lon="1.12504">
        <ele>67.011009</ele>
        <time>2019-12-17T21:15:57Z</time>
      </trkpt>
      <trkpt lat="49.02015" lon="1.12548">
        <ele>67.103722</ele>
        <time>2019-12-17T21:15:57Z</time>
      </trkpt>
      <trkpt lat="49.01972" lon="1.12619">
        <ele>67.42334</ele>
        <time>2019-12-17T21:15:57Z</time>
      </trkpt>
      <trkpt lat="49.02015" lon="1.12732">
        <ele>70.444931</ele>
        <time>2019-12-17T21:15:57Z</time>
      </trkpt>
      <trkpt lat="49.01991" lon="1.12766">
        <ele>70.792763</ele>
        <time>2019-12-17T21:15:57Z</time>
      </trkpt>
      <trkpt lat="49.02005" lon="1.12812">
        <ele>70.825706</ele>
        <time>2019-12-17T21:15:57Z</time>
      </trkpt>
      <trkpt lat="49.01973" lon="1.12862">
        <ele>70.164032</ele>
        <time>2019-12-17T21:15:57Z</time>
      </trkpt>
      <trkpt lat="49.01982" lon="1.1298">
        <ele>65.605072</ele>
        <time>2019-12-17T21:15:57Z</time>
      </trkpt>
      <trkpt lat="49.02019" lon="1.13105">
        <ele>64.514893</ele>
        <time>2019-12-17T21:15:57Z</time>
      </trkpt>
      <trkpt lat="49.02073" lon="1.13256">
        <ele>63.567413</ele>
        <time>2019-12-17T21:15:57Z</time>
      </trkpt>
      <trkpt lat="49.02119" lon="1.13413">
        <ele>67.814453</ele>
        <time>2019-12-17T21:15:57Z</time>
      </trkpt>
      <trkpt lat="49.02153" lon="1.13567">
        <ele>64.692123</ele>
        <time>2019-12-17T21:15:57Z</time>
      </trkpt>
      <trkpt lat="49.02158" lon="1.13629">
        <ele>65.181366</ele>
        <time>2019-12-17T21:15:57Z</time>
      </trkpt>
      <trkpt lat="49.02185" lon="1.13729">
        <ele>70.713562</ele>
        <time>2019-12-17T21:15:57Z</time>
      </trkpt>
      <trkpt lat="49.02182" lon="1.1378">
        <ele>71.800102</ele>
        <time>2019-12-17T21:15:57Z</time>
      </trkpt>
      <trkpt lat="49.02267" lon="1.14057">
        <ele>65.932533</ele>
        <time>2019-12-17T21:15:57Z</time>
      </trkpt>
    </trkseg>
  </trk>
</gpx>